Weather History for Troy, MI

Change the Weather History Date:

Friday, February 22, 2013

  Actual Average (KDET) Record (KDET)
Temperature  
Mean Temperature 30 °F -  
Max Temperature 34 °F 40 °F 59 °F (1988)
Min Temperature 25 °F 25 °F -1 °F (1963)
Degree Days  
Heating Degree Days 36    
Moisture  
Dew Point 26 °F    
Average Humidity 86    
Maximum Humidity 96    
Minimum Humidity 77    
Precipitation  
Precipitation 0.00 in - - ()
Sea Level Pressure  
Sea Level Pressure 30.04 in    
Wind  
Wind Speed 10 mph (SE)    
Max Wind Speed 16 mph    
Max Gust Speed 25 mph    
Visibility 6 miles    
Events Snow    
Averages and records for this station are not official NWS values.
T = Trace of Precipitation, MM = Missing Value Source: NWS Daily Summary

Daily Weather History Graph

Daily Weather History Graph

Search for Another Location

Airport:

Trip Planner

Search our weather history database for the weather conditions in past years. The results will help you decide how hot, cold, wet, or windy it might be!

Date:

Astronomy

Feb. 22, 2013 Rise Set
Actual Time 7:18 AM EST 6:14 PM EST
Civil Twilight 6:50 AM EST 6:42 PM EST
Nautical Twilight 6:17 AM EST 7:15 PM EST
Astronomical Twilight 5:45 AM EST 7:47 PM EST
Moon 3:22 PM EST (2/22) 5:06 AM EST (2/22)
Length of Visible Light 11h 52m
Length of Day
10h 55m
Waxing Gibbous, 90% of the Moon is Illuminated
Feb 22
Waxing Gibbous
Feb 25
Full
Mar 4
Last Quarter
Mar 11
New
Mar 19
First Quarter

Hourly Weather History & Observations

Time (EST) Temp. Windchill Dew Point Humidity Pressure Visibility Wind Dir Wind Speed Gust Speed Precip Events Conditions
12:15 AM 26.2 °F 17.1 °F 21.2 °F 81% 30.29 in 10.0 mi East 9.2 mph - N/A   Overcast
12:34 AM 26.2 °F 15.8 °F 21.2 °F 81% 30.27 in 10.0 mi East 11.5 mph - N/A   Overcast
12:54 AM 25.7 °F 16.4 °F 20.3 °F 80% 30.27 in 10.0 mi East 9.2 mph - N/A   Overcast
1:14 AM 25.5 °F 18.7 °F 20.3 °F 81% 30.28 in 10.0 mi East 5.8 mph 17.3 mph N/A   Overcast
1:34 AM 25.5 °F 14.9 °F 19.4 °F 78% 30.28 in 10.0 mi East 11.5 mph 16.1 mph N/A   Overcast
1:55 AM 25.5 °F 16.9 °F 19.2 °F 77% 30.28 in 10.0 mi East 8.1 mph - N/A   Overcast
2:14 AM 25.5 °F 16.9 °F 19.4 °F 78% 30.28 in 10.0 mi ESE 8.1 mph - N/A   Overcast
2:34 AM 25.3 °F 14.7 °F 19.4 °F 78% 30.25 in 10.0 mi East 11.5 mph - N/A   Overcast
2:55 AM 25.3 °F 16.0 °F 19.4 °F 78% 30.25 in 10.0 mi East 9.2 mph 17.3 mph N/A   Overcast
3:14 AM 25.3 °F 14.7 °F 19.4 °F 78% 30.24 in 10.0 mi East 11.5 mph 18.4 mph N/A   Overcast
3:35 AM 25.3 °F 14.7 °F 19.4 °F 78% 30.21 in 10.0 mi East 11.5 mph 17.3 mph N/A   Overcast
3:54 AM 25.3 °F 14.7 °F 19.4 °F 78% 30.20 in 10.0 mi East 11.5 mph 18.4 mph N/A   Overcast
4:14 AM 25.3 °F 13.1 °F 19.8 °F 79% 30.17 in 10.0 mi East 15.0 mph 20.7 mph N/A   Overcast
4:34 AM 25.7 °F 14.0 °F 20.3 °F 80% 30.15 in 10.0 mi East 13.8 mph 20.7 mph N/A   Overcast
4:54 AM 26.1 °F 13.6 °F 20.3 °F 79% 30.13 in 10.0 mi East 16.1 mph 20.7 mph N/A   Overcast
5:14 AM 26.4 °F 16.0 °F 20.5 °F 78% 30.13 in 10.0 mi East 11.5 mph 25.3 mph N/A   Overcast
5:34 AM 26.6 °F 14.3 °F 20.8 °F 79% 30.12 in 10.0 mi East 16.1 mph 24.2 mph N/A   Overcast
5:55 AM 26.6 °F 14.7 °F 21.2 °F 80% 30.11 in 10.0 mi East 15.0 mph 20.7 mph N/A   Overcast
6:14 AM 27.1 °F 16.4 °F 22.1 °F 81% 30.12 in 10.0 mi East 12.7 mph 21.9 mph N/A   Overcast
6:35 AM 27.5 °F 18.0 °F 22.5 °F 81% 30.13 in 10.0 mi East 10.4 mph 18.4 mph N/A   Overcast
7:14 AM 27.7 °F 16.6 °F 22.8 °F 82% 30.07 in 10.0 mi East 13.8 mph 21.9 mph N/A   Overcast
7:54 AM 27.5 °F 16.8 °F 23.7 °F 86% 30.08 in 0.2 mi East 12.7 mph 21.9 mph N/A Snow Snow
8:15 AM 27.3 °F 15.6 °F 24.4 °F 89% 30.05 in 0.2 mi East 15.0 mph 19.6 mph N/A Snow Heavy Snow
8:55 AM 27.3 °F 16.1 °F 24.6 °F 90% 30.04 in 0.2 mi East 13.8 mph 21.9 mph N/A Snow Snow
9:54 AM 28.2 °F 18.9 °F 25.3 °F 89% 30.02 in 0.2 mi East 10.4 mph - N/A Snow Snow
10:35 AM 28.9 °F 18.2 °F 25.7 °F 88% 30.00 in 0.5 mi East 13.8 mph 21.9 mph N/A Snow Light Snow
10:54 AM 29.3 °F 19.6 °F 25.7 °F 86% 29.99 in 1.5 mi East 11.5 mph 19.6 mph N/A Snow Light Snow
11:14 AM 30.2 °F 21.3 °F 26.2 °F 85% 29.97 in 1.8 mi East 10.4 mph 18.4 mph N/A Snow Light Snow
11:34 AM 30.6 °F 21.2 °F 26.4 °F 85% 29.97 in 2.5 mi East 11.5 mph 18.4 mph N/A Snow Light Snow
11:54 AM 31.1 °F 22.4 °F 26.6 °F 83% 29.97 in 5.0 mi ESE 10.4 mph 18.4 mph N/A   Overcast
12:14 PM 31.1 °F 22.4 °F 27.0 °F 85% 29.96 in 10.0 mi ESE 10.4 mph - N/A   Overcast
12:34 PM 31.3 °F 23.9 °F 27.3 °F 85% 29.95 in 10.0 mi SE 8.1 mph - N/A   Overcast
12:55 PM 32.0 °F 25.6 °F 28.2 °F 86% 29.94 in 7.0 mi ESE 6.9 mph - N/A   Overcast
1:34 PM 32.0 °F 27.5 °F 29.1 °F 89% 29.93 in 4.0 mi SE 4.6 mph - N/A   Overcast
2:14 PM 32.0 °F 27.5 °F 29.5 °F 90% 29.92 in 3.0 mi ESE 4.6 mph - N/A   Overcast
2:35 PM 31.1 °F 27.7 °F 28.4 °F 90% 29.92 in 4.0 mi SSE 3.5 mph - N/A   Overcast
2:55 PM 31.1 °F 27.7 °F 28.8 °F 91% 29.92 in 3.0 mi SSE 3.5 mph - N/A   Overcast
3:14 PM 31.5 °F 28.1 °F 29.1 °F 91% 29.91 in 2.5 mi SE 3.5 mph - N/A   Overcast
3:35 PM 31.6 °F 28.3 °F 29.3 °F 91% 29.91 in 1.8 mi SE 3.5 mph - N/A   Overcast
6:34 PM 32.5 °F 29.3 °F 31.6 °F 96% 29.91 in 1.0 mi South 3.5 mph - N/A   Overcast
6:55 PM 32.9 °F 27.5 °F 32.0 °F 96% 29.92 in 1.0 mi South 5.8 mph - N/A   Overcast
7:14 PM 32.9 °F 27.5 °F 32.0 °F 96% 29.92 in 1.0 mi SSW 5.8 mph - N/A   Overcast
7:35 PM 33.1 °F 28.7 °F 32.0 °F 96% 29.92 in 1.0 mi SSW 4.6 mph - N/A   Overcast
7:54 PM 33.1 °F 27.7 °F 32.0 °F 96% 29.92 in 1.0 mi SSW 5.8 mph - N/A   Overcast
8:14 PM 33.3 °F 27.9 °F 32.0 °F 95% 29.92 in 1.2 mi SSW 5.8 mph - N/A Snow Light Snow
8:35 PM 33.6 °F 28.4 °F 32.2 °F 94% 29.91 in 1.5 mi SSW 5.8 mph - N/A   Overcast
8:54 PM 33.8 °F 26.4 °F 32.5 °F 95% 29.91 in 2.0 mi SSW 9.2 mph - N/A   Overcast
9:14 PM 34.0 °F 27.2 °F 32.7 °F 95% 29.91 in 3.0 mi SSW 8.1 mph - N/A   Overcast
9:35 PM 34.2 °F 27.5 °F 32.9 °F 95% 29.91 in 4.0 mi SW 8.1 mph - N/A   Overcast
9:54 PM 34.7 °F 28.8 °F 33.1 °F 94% 29.91 in 5.0 mi SSW 6.9 mph - N/A   Overcast
10:14 PM 34.7 °F 27.5 °F 33.1 °F 94% 29.91 in 5.0 mi SSW 9.2 mph - N/A   Overcast
10:35 PM 34.7 °F 28.8 °F 32.5 °F 92% 29.91 in 7.0 mi SW 6.9 mph - N/A   Overcast
10:54 PM 34.9 °F 28.3 °F 32.0 °F 89% 29.91 in 7.0 mi SSW 8.1 mph - N/A   Overcast
11:14 PM 34.9 °F 29.0 °F 32.0 °F 89% 29.91 in 10.0 mi SW 6.9 mph - N/A   Overcast
11:34 PM 34.7 °F 27.5 °F 31.8 °F 89% 29.90 in 10.0 mi SSW 9.2 mph - N/A   Overcast
11:54 PM 34.7 °F 28.1 °F 31.5 °F 88% 29.91 in 10.0 mi SW 8.1 mph - N/A   Overcast